�������l�o���
Date,Time,MP-1(��Sv/h),MP-2(��Sv/h),MP-3(��Sv/h),MP-4(��Sv/h),MP-5(��Sv/h),MP-6(��Sv/h),MP-7(��Sv/h),����,����(m/s),���J
2022/07/23,00:00,0.144,0.137,0.213,0.208,0.209,0.115,0.075,�k��,1.4,��
2022/07/23,00:10,0.146,0.136,0.214,0.206,0.210,0.114,0.075,�k�k��,0.8,��
2022/07/23,00:20,0.145,0.137,0.214,0.205,0.212,0.115,0.075,�k,0.7,��
2022/07/23,00:30,0.144,0.136,0.214,0.206,0.209,0.115,0.075,�k��,0.6,��
2022/07/23,00:40,0.146,0.136,0.213,0.206,0.209,0.114,0.076,-,CALM,��
2022/07/23,00:50,0.146,0.136,0.214,0.206,0.212,0.115,0.075,�k�k��,1.5,��
2022/07/23,01:00,0.144,0.135,0.212,0.208,0.209,0.116,0.074,�k�k��,1.5,��
2022/07/23,01:10,0.145,0.136,0.215,0.207,0.210,0.114,0.075,�k�k��,0.8,��
2022/07/23,01:20,0.146,0.137,0.213,0.205,0.212,0.115,0.074,-,CALM,��
2022/07/23,01:30,0.145,0.136,0.212,0.208,0.210,0.115,0.075,�k��,0.9,��
2022/07/23,01:40,0.145,0.137,0.214,0.209,0.209,0.115,0.075,�k��,0.9,�L
2022/07/23,01:50,0.146,0.137,0.214,0.207,0.211,0.115,0.075,�k��,1.2,��
2022/07/23,02:00,0.144,0.136,0.212,0.208,0.211,0.115,0.075,���k��,1.3,��
2022/07/23,02:10,0.144,0.136,0.215,0.207,0.210,0.116,0.075,-,CALM,��
2022/07/23,02:20,0.145,0.137,0.214,0.205,0.211,0.114,0.075,-,CALM,��
2022/07/23,02:30,0.145,0.136,0.213,0.208,0.211,0.116,0.075,-,CALM,��
2022/07/23,02:40,0.144,0.137,0.214,0.207,0.211,0.116,0.076,-,CALM,��
2022/07/23,02:50,0.147,0.137,0.215,0.206,0.210,0.115,0.075,-,CALM,��
2022/07/23,03:00,0.145,0.136,0.213,0.208,0.213,0.116,0.076,-,CALM,��
2022/07/23,03:10,0.146,0.137,0.216,0.208,0.211,0.115,0.076,-,CALM,��
2022/07/23,03:20,0.146,0.137,0.214,0.207,0.210,0.115,0.075,�k,1.4,��
2022/07/23,03:30,0.146,0.136,0.214,0.207,0.213,0.116,0.076,-,CALM,��
2022/07/23,03:40,0.146,0.137,0.216,0.208,0.212,0.115,0.075,�k��,0.8,��
2022/07/23,03:50,0.146,0.136,0.213,0.207,0.211,0.116,0.075,-,CALM,��
2022/07/23,04:00,0.146,0.137,0.213,0.208,0.212,0.117,0.075,-,CALM,��
2022/07/23,04:10,0.146,0.137,0.215,0.209,0.211,0.116,0.075,-,CALM,��
2022/07/23,04:20,0.146,0.137,0.214,0.206,0.211,0.116,0.076,���k��,0.6,��
2022/07/23,04:30,0.146,0.138,0.215,0.209,0.214,0.116,0.076,-,CALM,��
2022/07/23,04:40,0.146,0.138,0.215,0.208,0.211,0.116,0.077,-,CALM,��
2022/07/23,04:50,0.147,0.136,0.213,0.206,0.212,0.115,0.076,-,CALM,��
2022/07/23,05:00,0.145,0.137,0.216,0.209,0.213,0.116,0.076,-,CALM,��
2022/07/23,05:10,0.147,0.137,0.215,0.208,0.211,0.116,0.076,-,CALM,��
2022/07/23,05:20,0.147,0.138,0.215,0.206,0.212,0.117,0.076,-,CALM,��
2022/07/23,05:30,0.146,0.138,0.217,0.211,0.212,0.117,0.077,-,CALM,��
2022/07/23,05:40,0.147,0.137,0.214,0.207,0.211,0.116,0.076,-,CALM,��
2022/07/23,05:50,0.147,0.137,0.214,0.206,0.210,0.116,0.076,��,0.6,��
2022/07/23,06:00,0.146,0.136,0.217,0.209,0.212,0.116,0.076,�k�k��,0.8,��
2022/07/23,06:10,0.146,0.138,0.215,0.208,0.213,0.116,0.075,-,CALM,��
2022/07/23,06:20,0.147,0.137,0.215,0.206,0.212,0.115,0.076,-,CALM,��
2022/07/23,06:30,0.145,0.137,0.217,0.209,0.210,0.116,0.076,-,CALM,��
2022/07/23,06:40,0.146,0.136,0.214,0.208,0.211,0.116,0.076,-,CALM,��
2022/07/23,06:50,0.148,0.138,0.213,0.208,0.212,0.116,0.076,-,CALM,��
2022/07/23,07:00,0.145,0.137,0.215,0.206,0.211,0.116,0.075,-,CALM,��
2022/07/23,07:10,0.146,0.136,0.216,0.207,0.210,0.117,0.075,�k,1.1,��
2022/07/23,07:20,0.147,0.137,0.213,0.210,0.211,0.115,0.075,�k,1.4,��
2022/07/23,07:30,0.147,0.138,0.214,0.209,0.212,0.116,0.075,�k�k��,1.8,��
2022/07/23,07:40,0.145,0.137,0.213,0.208,0.212,0.117,0.075,�k,2.5,��
2022/07/23,07:50,0.146,0.137,0.214,0.207,0.211,0.117,0.075,�k�k��,2.2,��
2022/07/23,08:00,0.147,0.137,0.213,0.206,0.210,0.115,0.076,�k,2.0,��
2022/07/23,08:10,0.146,0.136,0.214,0.207,0.209,0.116,0.075,�k,2.6,��
2022/07/23,08:20,0.145,0.136,0.214,0.208,0.208,0.116,0.077,�k,2.5,��
2022/07/23,08:30,0.145,0.137,0.215,0.207,0.211,0.117,0.075,�k�k��,2.3,��
2022/07/23,08:40,0.148,0.137,0.215,0.207,0.211,0.116,0.076,�k�k��,2.9,��
2022/07/23,08:50,0.148,0.135,0.215,0.208,0.211,0.116,0.076,�k�k��,3.6,��
2022/07/23,09:00,0.145,0.136,0.216,0.209,0.211,0.116,0.075,�k�k��,3.6,��
2022/07/23,09:10,0.146,0.136,0.215,0.207,0.212,0.116,0.076,�k�k��,3.4,��
2022/07/23,09:20,0.145,0.137,0.215,0.208,0.211,0.117,0.076,�k,2.9,��
2022/07/23,09:30,0.145,0.137,0.215,0.209,0.212,0.117,0.075,�k�k��,1.6,��
2022/07/23,09:40,0.145,0.137,0.215,0.208,0.212,0.117,0.076,�k�k��,1.3,��
2022/07/23,09:50,0.146,0.137,0.215,0.209,0.212,0.116,0.075,�k,1.4,��
2022/07/23,10:00,0.146,0.137,0.215,0.208,0.212,0.116,0.075,�k,1.5,��
2022/07/23,10:10,0.145,0.136,0.215,0.209,0.213,0.116,0.076,-,CALM,��
2022/07/23,10:20,0.146,0.137,0.215,0.207,0.211,0.117,0.075,�k��,1.0,��
2022/07/23,10:30,0.145,0.138,0.216,0.209,0.213,0.116,0.076,��,1.3,��
2022/07/23,10:40,0.145,0.137,0.216,0.208,0.211,0.117,0.076,���k��,1.7,��
2022/07/23,10:50,0.146,0.138,0.217,0.208,0.212,0.117,0.076,���k��,1.5,��
2022/07/23,11:00,0.145,0.138,0.215,0.208,0.213,0.117,0.075,���k��,1.2,��
2022/07/23,11:10,0.146,0.137,0.216,0.209,0.213,0.117,0.076,��,1.9,��
2022/07/23,11:20,0.146,0.137,0.216,0.208,0.212,0.117,0.075,��,1.2,��
2022/07/23,11:30,0.147,0.137,0.217,0.209,0.214,0.116,0.076,-,CALM,��
2022/07/23,11:40,0.146,0.138,0.215,0.209,0.214,0.117,0.077,�쓌,0.8,��
2022/07/23,11:50,0.146,0.138,0.214,0.210,0.212,0.117,0.076,��쓌,1.3,��
2022/07/23,12:00,0.146,0.138,0.216,0.210,0.213,0.117,0.076,��,0.8,��
2022/07/23,12:10,0.147,0.138,0.217,0.210,0.213,0.117,0.076,�쓌,1.8,��
2022/07/23,12:20,0.147,0.137,0.216,0.210,0.214,0.118,0.076,��,1.1,��
2022/07/23,12:30,0.147,0.138,0.216,0.211,0.213,0.117,0.076,��쓌,2.9,��
2022/07/23,12:40,0.146,0.138,0.216,0.210,0.212,0.117,0.075,��쓌,3.2,��
2022/07/23,12:50,0.147,0.138,0.216,0.211,0.212,0.117,0.076,��,3.3,��
2022/07/23,13:00,0.146,0.138,0.217,0.209,0.213,0.117,0.076,��쓌,3.8,��
2022/07/23,13:10,0.148,0.138,0.216,0.209,0.212,0.117,0.076,�쓌,3.1,��
2022/07/23,13:20,0.146,0.138,0.217,0.211,0.212,0.117,0.076,��쓌,3.0,��
2022/07/23,13:30,0.147,0.138,0.215,0.210,0.212,0.116,0.076,��쓌,3.1,��
2022/07/23,13:40,0.147,0.138,0.218,0.210,0.212,0.117,0.075,��쓌,4.3,��
2022/07/23,13:50,0.147,0.138,0.216,0.209,0.212,0.117,0.075,��쓌,4.1,��
2022/07/23,14:00,0.147,0.138,0.217,0.210,0.212,0.117,0.076,��,4.7,��
2022/07/23,14:10,0.148,0.139,0.217,0.209,0.213,0.117,0.075,��쓌,4.2,��
2022/07/23,14:20,0.147,0.139,0.217,0.210,0.213,0.117,0.076,��쓌,3.9,��
2022/07/23,14:30,0.147,0.138,0.216,0.210,0.213,0.118,0.076,��,4.4,��
2022/07/23,14:40,0.147,0.138,0.216,0.209,0.213,0.118,0.076,��,3.6,��
2022/07/23,14:50,0.147,0.138,0.217,0.210,0.214,0.117,0.076,��,4.1,��
2022/07/23,15:00,0.147,0.140,0.218,0.209,0.214,0.117,0.076,��쐼,2.3,��
2022/07/23,15:10,0.147,0.139,0.218,0.211,0.214,0.117,0.076,���k��,1.0,��
2022/07/23,15:20,0.147,0.140,0.217,0.211,0.214,0.117,0.075,���쐼,3.1,��
2022/07/23,15:30,0.147,0.139,0.216,0.210,0.214,0.118,0.075,�k��,2.6,��
2022/07/23,15:40,0.147,0.138,0.217,0.211,0.214,0.117,0.075,���k��,6.4,��
2022/07/23,15:50,0.146,0.138,0.216,0.211,0.215,0.117,0.076,���k��,5.7,��
2022/07/23,16:00,0.147,0.138,0.217,0.211,0.214,0.117,0.076,���k��,6.8,��
2022/07/23,16:10,0.147,0.139,0.216,0.210,0.213,0.117,0.076,���k��,6.2,��
2022/07/23,16:20,0.147,0.138,0.217,0.210,0.214,0.117,0.076,���k��,5.4,��
2022/07/23,16:30,0.147,0.138,0.217,0.210,0.213,0.117,0.075,���k��,3.5,��
2022/07/23,16:40,0.147,0.137,0.217,0.210,0.214,0.117,0.076,��,8.4,��
2022/07/23,16:50,0.148,0.138,0.216,0.209,0.213,0.117,0.075,��,8.5,��
2022/07/23,17:00,0.149,0.139,0.216,0.209,0.213,0.117,0.075,��,3.6,��
2022/07/23,17:10,0.147,0.138,0.217,0.210,0.213,0.118,0.076,���k��,7.5,��
2022/07/23,17:20,0.146,0.138,0.217,0.209,0.212,0.117,0.075,��,5.4,��
2022/07/23,17:30,0.147,0.138,0.217,0.209,0.212,0.116,0.075,���k��,4.7,��
2022/07/23,17:40,0.148,0.138,0.216,0.208,0.212,0.117,0.076,���k��,4.4,��
2022/07/23,17:50,0.146,0.137,0.215,0.209,0.212,0.117,0.075,���k��,4.2,��
2022/07/23,18:00,0.147,0.139,0.217,0.211,0.212,0.117,0.076,���k��,3.4,��
2022/07/23,18:10,0.146,0.137,0.216,0.213,0.211,0.118,0.076,��,5.5,��
2022/07/23,18:20,0.147,0.137,0.219,0.211,0.211,0.118,0.075,��,6.8,��
2022/07/23,18:30,0.147,0.140,0.219,0.210,0.213,0.117,0.075,���k��,5.2,��
2022/07/23,18:40,0.146,0.139,0.219,0.209,0.211,0.118,0.075,���k��,5.7,��
2022/07/23,18:50,0.146,0.139,0.218,0.209,0.211,0.118,0.075,��,5.4,��
2022/07/23,19:00,0.148,0.137,0.215,0.212,0.210,0.118,0.076,���k��,5.0,��
2022/07/23,19:10,0.149,0.138,0.219,0.212,0.214,0.117,0.076,���k��,5.5,��
2022/07/23,19:20,0.148,0.139,0.219,0.210,0.216,0.117,0.075,���k��,5.8,��
2022/07/23,19:30,0.148,0.139,0.217,0.209,0.213,0.118,0.075,���k��,5.9,��
2022/07/23,19:40,0.147,0.137,0.217,0.213,0.212,0.118,0.076,���k��,5.7,��
2022/07/23,19:50,0.149,0.138,0.219,0.212,0.211,0.117,0.076,���k��,6.7,��
2022/07/23,20:00,0.148,0.139,0.219,0.211,0.214,0.116,0.075,���k��,6.8,��
2022/07/23,20:10,0.147,0.138,0.218,0.208,0.213,0.117,0.075,���k��,6.3,��
2022/07/23,20:20,0.147,0.138,0.216,0.212,0.213,0.118,0.076,���k��,5.4,��
2022/07/23,20:30,0.146,0.138,0.219,0.213,0.211,0.116,0.076,���k��,4.7,��
2022/07/23,20:40,0.149,0.139,0.219,0.210,0.213,0.116,0.075,���k��,7.0,��
2022/07/23,20:50,0.148,0.139,0.217,0.209,0.216,0.117,0.075,���k��,8.2,��
2022/07/23,21:00,0.146,0.138,0.217,0.210,0.214,0.117,0.076,���k��,7.9,��
2022/07/23,21:10,0.147,0.138,0.220,0.212,0.212,0.118,0.076,���k��,6.3,��
2022/07/23,21:20,0.147,0.138,0.219,0.212,0.211,0.118,0.076,���k��,6.7,��
2022/07/23,21:30,0.150,0.139,0.217,0.209,0.214,0.118,0.075,���k��,8.1,��
2022/07/23,21:40,0.148,0.138,0.216,0.210,0.214,0.118,0.075,���k��,7.1,��
2022/07/23,21:50,0.147,0.137,0.219,0.212,0.213,0.117,0.076,���k��,4.4,��
2022/07/23,22:00,0.146,0.138,0.219,0.211,0.211,0.118,0.076,�k��,4.6,��
2022/07/23,22:10,0.148,0.139,0.218,0.210,0.213,0.119,0.075,�k��,5.1,��
2022/07/23,22:20,0.149,0.140,0.216,0.210,0.215,0.117,0.075,�k��,2.3,��
2022/07/23,22:30,0.148,0.138,0.220,0.213,0.214,0.117,0.076,���k��,1.3,��
2022/07/23,22:40,0.147,0.137,0.218,0.211,0.212,0.118,0.076,�k��,5.1,��
2022/07/23,22:50,0.147,0.140,0.218,0.210,0.211,0.117,0.076,�k��,5.1,��
2022/07/23,23:00,0.148,0.139,0.218,0.209,0.216,0.117,0.075,�k��,4.9,��
2022/07/23,23:10,0.149,0.139,0.220,0.212,0.213,0.117,0.076,���k��,6.1,��
2022/07/23,23:20,0.148,0.138,0.218,0.211,0.213,0.117,0.076,���k��,4.7,��
2022/07/23,23:30,0.147,0.138,0.217,0.210,0.210,0.117,0.076,��,2.4,��
2022/07/23,23:40,0.147,0.139,0.218,0.208,0.214,0.117,0.075,-,CALM,��
2022/07/23,23:50,0.149,0.139,0.220,0.212,0.214,0.118,0.075,��,1.2,��
